Precipitable_Water
1.13 1.14 1.15 1.18 1.21 1.24 1.20 1.22 1.24 1.23 1.22 1.16 1.08 1.02 1.09 1.16 1.22 1.27 1.38 1.44 1.46 1.48 1.54 1.50 1.43 1.43 1.35 1.38 1.38 1.36 1.30 1.23 1.01 1.05 1.14 1.19 1.19 1.22 1.28 1.38 1.43 1.44 1.47
1.17 1.19 1.20 1.20 1.21 1.19 1.16 1.19 1.24 1.20 1.22 1.18 1.11 0.99 1.01 1.08 1.17 1.18 1.21 1.34 1.41 1.39 1.43 1.46 1.43 1.47 1.37 1.39 1.37 1.32 1.30 1.31 1.15 0.99 1.13 1.19 1.22 1.32 1.36 1.41 1.46 1.49 1.49
1.20 1.18 1.20 1.22 1.23 1.18 1.17 1.19 1.20 1.20 1.17 1.17 1.11 1.00 0.94 0.99 1.06 1.14 1.19 1.22 1.32 1.38 1.43 1.42 1.38 1.40 1.32 1.32 1.32 1.27 1.28 1.34 1.34 1.23 1.13 1.30 1.34 1.37 1.34 1.36 1.36 1.48 1.73
1.21 1.19 1.17 1.17 1.17 1.16 1.17 1.19 1.18 1.19 1.14 1.13 1.11 1.02 0.98 0.98 0.99 1.04 1.12 1.15 1.18 1.23 1.32 1.36 1.36 1.34 1.29 1.30 1.31 1.30 1.31 1.27 1.27 1.24 1.22 1.30 1.36 1.40 1.47 1.48 1.59 1.75 1.75
1.17 1.15 1.14 1.19 1.20 1.22 1.21 1.19 1.17 1.18 1.13 1.14 1.13 1.09 1.04 1.03 0.99 0.97 1.00 1.03 1.07 1.09 1.16 1.19 1.26 1.30 1.32 1.35 1.34 1.32 1.37 1.34 1.32 1.30 1.27 1.28 1.34 1.41 1.51 1.70 1.63 1.67 1.72
1.20 1.12 1.18 1.21 1.19 1.17 1.19 1.20 1.17 1.13 1.11 1.14 1.11 1.09 1.06 1.05 1.01 0.99 0.99 0.97 1.01 1.02 0.98 1.04 1.15 1.21 1.22 1.24 1.27 1.32 1.40 1.32 1.26 1.27 1.27 1.31 1.40 1.56 1.65 1.67 1.66 1.62 1.45
1.25 1.18 1.15 1.15 1.11 1.11 1.14 1.15 1.10 1.07 1.11 1.08 1.09 1.11 1.04 1.06 1.05 1.02 1.01 1.00 0.98 0.99 0.96 0.96 0.97 1.05 1.10 1.16 1.22 1.27 1.32 1.38 1.47 1.47 1.41 1.46 1.49 1.65 1.72 1.68 1.76 1.76 1.60
1.36 1.22 1.12 1.11 1.07 1.09 1.07 1.02 1.01 1.05 1.04 1.04 1.06 1.08 1.05 1.03 1.04 1.02 1.03 1.06 1.04 1.02 1.00 0.97 0.98 0.98 1.05 1.08 1.12 1.19 1.30 1.42 1.52 1.57 1.60 1.63 1.74 1.86 1.90 1.88 1.84 1.73 1.73
1.37 1.29 1.14 1.06 1.06 1.03 0.97 0.96 1.00 1.03 1.03 1.03 1.05 1.05 1.02 0.99 1.01 1.01 1.06 1.06 1.03 1.04 1.09 1.10 1.10 1.10 1.15 1.21 1.26 1.28 1.33 1.47 1.73 1.80 1.84 1.88 1.93 1.98 1.94 1.82 1.60 1.51 1.39
1.27 1.23 1.24 1.20 1.16 1.10 1.07 1.02 1.01 1.01 0.99 1.06 1.05 1.08 1.04 0.99 1.06 1.07 1.15 1.16 1.07 1.08 1.17 1.26 1.33 1.36 1.43 1.46 1.43 1.42 1.39 1.57 1.72 1.80 1.87 1.90 1.98 1.97 1.99 1.88 1.73 1.49 1.43
1.37 1.06 1.12 1.12 1.03 1.05 1.10 1.21 1.25 1.32 1.44 1.48 1.45 1.53 1.58 1.55 1.51 1.47 1.41 1.35 1.26 1.25 1.26 1.31 1.42 1.47 1.51 1.55 1.59 1.60 1.59 1.76 1.75 1.76 1.79 1.86 1.92 1.95 1.97 1.89 1.83 1.65 1.45
1.20 1.25 1.29 1.33 1.37 1.44 1.43 1.44 1.46 1.49 1.48 1.51 1.55 1.59 1.69 1.73 1.67 1.61 1.55 1.52 1.51 1.42 1.42 1.53 1.60 1.62 1.61 1.63 1.63 1.65 1.70 1.74 1.74 1.69 1.69 1.72 1.77 1.80 1.83 1.78 1.67 1.60 1.61
1.33 1.34 1.38 1.43 1.46 1.49 1.46 1.44 1.50 1.57 1.48 1.45 1.46 1.48 1.56 1.70 1.77 1.78 1.74 1.68 1.68 1.59 1.63 1.64 1.66 1.67 1.67 1.67 1.69 1.72 1.74 1.70 1.65 1.59 1.65 1.71 1.82 1.80 1.80 1.63 1.51 1.43 1.44
1.39 1.39 1.46 1.45 1.51 1.59 1.62 1.61 1.54 1.55 1.54 1.48 1.34 1.34 1.38 1.45 1.49 1.57 1.59 1.65 1.73 1.75 1.76 1.75 1.78 1.77 1.78 1.78 1.79 1.78 1.75 1.74 1.70 1.69 1.77 1.82 1.95 1.71 1.59 1.50 1.25 1.22 1.20
1.58 1.59 1.52 1.51 1.55 1.57 1.59 1.58 1.60 1.68 1.69 1.58 1.51 1.49 1.40 1.38 1.45 1.52 1.50 1.47 1.47 1.48 1.61 1.71 1.71 1.69 1.68 1.70 1.74 1.81 1.84 1.83 1.75 1.80 1.79 1.75 1.66 1.63 1.45 1.36 1.22 1.18 1.13
1.62 1.71 1.78 1.85 1.56 1.82 1.77 1.70 1.78 1.73 1.76 1.72 1.65 1.60 1.66 1.66 1.63 1.60 1.56 1.53 1.52 1.54 1.47 1.39 1.36 1.42 1.44 1.49 1.56 1.61 1.69 1.70 1.78 1.83 1.79 1.70 1.62 1.50 1.27 1.25 1.21 1.16 1.09
1.58 1.61 1.71 1.90 1.93 1.88 1.82 1.70 1.59 1.65 1.68 1.70 1.69 1.67 1.66 1.67 1.68 1.68 1.67 1.64 1.60 1.57 1.40 1.38 1.38 1.40 1.45 1.50 1.58 1.62 1.57 1.71 1.85 1.82 1.76 1.69 1.61 1.33 1.22 1.18 1.17 1.16 1.12
1.39 1.52 1.50 1.61 1.59 1.48 1.45 1.47 1.46 1.35 1.28 1.31 1.42 1.42 1.43 1.45 1.53 1.61 1.63 1.63 1.47 1.46 1.39 1.34 1.34 1.40 1.40 1.46 1.52 1.54 1.62 1.70 1.73 1.77 1.72 1.61 1.38 1.22 1.17 1.15 1.14 1.13 1.11
0.96 1.06 1.19 1.26 1.30 1.21 1.13 1.12 1.15 1.13 1.09 1.14 1.24 1.28 1.31 1.30 1.34 1.42 1.51 1.51 1.43 1.39 1.36 1.37 1.34 1.38 1.46 1.49 1.56 1.61 1.64 1.66 1.72 1.67 1.59 1.41 1.24 1.21 1.18 1.17 1.15 1.15 1.15
0.89 0.91 0.91 0.88 0.88 0.91 0.95 0.93 0.88 0.86 0.87 0.90 0.96 1.09 1.20 1.22 1.22 1.27 1.34 1.38 1.43 1.45 1.41 1.36 1.37 1.40 1.45 1.51 1.54 1.59 1.60 1.61 1.62 1.58 1.44 1.28 1.25 1.24 1.18 1.17 1.16 1.14 1.15
0.83 0.80 0.78 0.75 0.75 0.79 0.86 0.87 0.87 0.85 0.86 0.84 0.86 1.02 1.21 1.19 1.23 1.29 1.28 1.31 1.38 1.46 1.46 1.44 1.44 1.47 1.50 1.54 1.56 1.57 1.58 1.58 1.55 1.45 1.32 1.27 1.27 1.21 1.24 1.23 1.21 1.23 1.23
0.87 0.84 0.81 0.75 0.78 0.79 0.81 0.85 0.91 0.92 0.86 0.78 0.81 0.90 1.12 1.23 1.27 1.32 1.39 1.45 1.48 1.52 1.54 1.50 1.49 1.52 1.55 1.59 1.57 1.54 1.50 1.46 1.41 1.35 1.28 1.28 1.25 1.23 1.24 1.25 1.25 1.25 1.25
0.94 0.89 0.87 0.85 0.84 0.87 0.88 0.89 0.90 0.95 0.89 0.86 0.86 0.84 0.96 1.14 1.30 1.41 1.47 1.52 1.48 1.47 1.51 1.49 1.49 1.50 1.54 1.53 1.54 1.50 1.44 1.41 1.40 1.37 1.29 1.26 1.24 1.24 1.26 1.26 1.28 1.26 1.24
1.02 1.01 0.97 0.97 0.96 0.96 0.98 0.96 0.98 1.02 0.99 0.91 0.90 0.90 0.95 1.10 1.25 1.35 1.41 1.49 1.49 1.49 1.48 1.49 1.48 1.48 1.48 1.46 1.46 1.47 1.47 1.46 1.44 1.37 1.33 1.27 1.24 1.26 1.28 1.29 1.29 1.30 1.30
1.07 1.03 1.09 1.07 1.05 1.04 1.08 1.10 1.13 1.16 1.07 1.01 1.01 1.00 1.03 1.11 1.18 1.33 1.39 1.46 1.46 1.43 1.39 1.41 1.44 1.47 1.49 1.49 1.46 1.45 1.37 1.36 1.37 1.37 1.37 1.35 1.32 1.31 1.31 1.30 1.31 1.32 1.34
1.12 1.08 1.05 1.10 1.11 1.11 1.10 1.07 1.06 1.08 1.05 1.02 1.02 1.08 1.14 1.11 1.13 1.26 1.36 1.38 1.48 1.45 1.43 1.43 1.41 1.38 1.38 1.34 1.34 1.36 1.36 1.36 1.38 1.40 1.43 1.41 1.37 1.35 1.35 1.33 1.34 1.33 1.32
Wind_Speed
36 35 34 33 32 30 28 26 24 22 20 18 16 15 13 12 12 12 11 11 11 11 10 9 8 8 7 7 6 6 6 7 10 11 12 13 15 17 19 21 23 24 26
36 36 35 33 32 31 29 28 26 24 22 20 18 17 16 15 14 13 13 13 13 13 13 13 12 11 10 10 9 9 10 11 12 14 16 17 19 21 22 24 25 27 29
37 36 35 35 33 32 31 29 28 26 24 22 21 19 18 17 16 15 14 14 14 14 14 14 14 14 14 13 12 12 13 13 15 17 19 20 21 23 25 26 27 29 31
37 37 36 35 34 33 32 30 29 27 25 24 22 21 20 19 19 18 17 16 15 15 15 16 16 16 16 15 15 15 15 15 16 17 19 20 22 24 25 27 29 30 32
36 36 36 35 35 34 33 31 30 28 27 25 23 22 21 21 20 19 19 18 18 17 17 17 17 17 17 17 16 16 15 16 16 17 19 21 23 25 27 29 31 33 34
33 34 35 35 35 34 34 32 31 29 28 26 25 24 23 22 22 21 21 20 20 20 20 19 19 18 19 19 19 18 18 17 18 19 21 23 25 27 29 31 32 33 34
32 32 33 34 34 34 34 33 32 30 28 27 27 25 25 24 24 24 23 23 23 22 22 22 21 20 19 19 19 19 20 21 21 22 23 25 28 29 31 32 32 32 33
33 31 31 32 33 33 33 32 31 30 29 28 27 26 25 25 25 24 24 24 24 24 24 23 23 22 21 21 20 20 20 21 22 23 24 27 28 29 29 30 31 32 34
33 32 31 31 32 32 32 31 31 30 29 28 27 26 26 25 25 25 24 24 24 24 23 23 23 22 22 21 21 21 22 22 23 25 27 29 29 29 29 29 31 32 34
33 33 32 31 32 32 32 31 30 29 28 27 26 25 24 24 24 24 24 23 23 23 22 23 24 24 23 22 23 23 23 24 24 25 25 25 26 27 27 28 31 32 34
31 32 31 31 30 30 30 30 29 28 27 26 25 24 24 24 24 23 23 23 23 23 23 24 24 24 24 25 25 25 25 24 25 25 25 25 26 26 27 28 30 32 34
30 30 31 31 31 29 29 29 29 28 26 25 24 24 23 24 24 24 24 24 24 24 25 24 24 24 25 25 25 26 26 26 26 26 26 26 26 26 27 27 29 31 33
30 30 30 31 30 29 29 28 27 26 25 25 24 24 24 24 25 26 26 26 26 26 26 26 26 26 26 26 26 26 26 26 27 26 26 26 26 26 26 27 28 30 31
30 29 30 31 30 29 28 28 28 26 26 25 24 23 23 22 23 23 24 25 27 26 28 28 28 28 28 28 27 27 27 27 27 27 26 26 25 25 26 27 27 27 25
27 28 29 29 29 30 30 29 29 28 28 26 25 25 24 23 24 23 22 22 23 25 26 27 28 28 29 29 29 29 29 29 29 28 27 25 25 25 25 25 24 23 23
26 26 26 27 27 28 28 29 29 29 28 29 28 27 27 27 26 26 26 26 26 25 25 26 26 27 28 28 29 29 29 29 28 27 25 25 25 25 24 23 22 22 22
26 28 26 22 24 25 25 25 26 29 31 31 31 32 32 31 29 30 29 28 28 28 29 29 29 29 30 30 29 29 28 27 26 25 25 25 25 24 23 21 21 21 22
23 23 24 26 25 25 25 24 25 26 28 30 32 33 34 34 34 33 32 31 30 31 31 31 31 30 30 29 29 28 27 26 25 26 25 25 25 24 22 21 22 22 21
24 24 24 25 25 24 23 24 25 27 28 31 32 35 35 35 36 35 35 35 34 33 32 32 31 30 29 28 27 28 27 27 27 26 26 26 25 24 23 23 23 22 20
25 26 26 25 25 24 23 22 22 22 22 22 24 27 28 30 32 33 34 34 34 33 31 30 30 30 29 28 27 26 26 26 26 27 27 26 25 25 24 24 23 22 21
28 28 27 27 26 26 25 24 24 23 23 23 24 24 25 27 28 29 30 30 30 31 30 29 29 29 28 27 27 27 27 27 28 27 27 27 27 26 25 25 24 23 22
31 30 30 30 30 30 29 29 28 27 27 27 27 26 26 26 27 27 27 28 28 28 29 28 28 28 28 29 29 29 29 29 29 29 29 29 28 27 26 25 24 23 23
34 35 35 34 34 34 34 33 32 30 29 28 28 28 27 27 28 29 29 29 28 28 28 29 29 29 29 30 30 30 31 32 31 31 30 29 28 27 27 26 26 25 24
39 39 39 38 38 37 36 36 35 34 33 31 31 30 30 30 29 29 29 30 29 29 29 28 29 29 30 30 31 31 31 31 31 30 30 29 29 29 28 28 28 27 26
40 41 42 42 42 41 40 39 38 36 35 34 33 34 33 32 32 31 30 30 31 31 31 31 31 31 31 31 32 32 33 33 32 32 32 32 31 30 30 30 30 29 29
41 41 41 41 41 41 41 40 39 38 37 36 36 35 34 34 33 33 33 32 32 32 33 33 33 33 34 35 34 35 34 34 34 34 33 33 33 32 32 32 31 31 30
Wind_Direction
210 211 212 214 215 217 219 220 221 222 223 223 223 223 224 225 224 224 224 225 224 223 223 223 225 225 228 234 241 257 273 286 295 303 309 314 315 317 317 316 315 313 312
211 212 213 215 216 217 219 220 221 222 223 225 226 226 227 227 227 228 229 229 229 230 232 232 236 237 240 245 253 264 277 286 294 298 304 309 310 313 314 314 313 313 312
212 213 214 215 216 218 219 220 221 222 224 226 227 228 228 228 229 230 232 234 235 235 237 237 242 244 246 250 256 267 277 285 292 296 302 306 310 313 314 314 315 315 313
213 214 215 216 217 218 219 220 220 222 223 225 227 229 230 230 230 233 234 237 238 240 241 242 245 246 248 251 257 266 276 284 291 296 303 308 312 316 315 317 318 318 317
213 214 215 216 217 218 218 219 220 221 223 224 226 229 230 230 231 233 236 239 242 244 245 245 247 248 250 252 258 266 274 282 290 298 304 308 312 316 318 319 318 319 319
211 213 214 215 216 217 218 218 220 221 223 224 227 229 231 233 234 236 239 243 245 247 247 247 249 251 251 253 259 264 270 279 287 295 302 307 312 315 318 319 319 322 323
211 212 213 214 215 216 217 218 220 221 223 225 228 231 234 237 238 240 242 245 247 249 248 248 249 250 252 255 260 265 271 277 282 291 298 304 310 314 317 319 319 321 323
211 212 212 212 214 214 215 216 218 221 223 225 229 233 237 239 240 241 243 246 248 249 248 248 248 250 252 256 261 267 273 279 285 291 296 303 308 313 316 320 322 323 324
212 212 212 211 211 212 213 214 218 221 224 227 231 235 238 239 240 241 242 245 247 247 247 245 246 250 252 255 261 267 274 281 287 291 296 301 306 311 314 317 321 325 327
211 212 212 212 212 213 215 217 220 222 225 227 231 234 237 239 239 239 240 243 244 245 246 246 247 249 253 256 261 267 275 281 288 294 299 303 307 312 314 317 320 324 327
210 207 207 209 210 211 213 216 218 221 225 227 231 235 237 239 239 238 238 241 244 246 248 249 249 250 255 258 262 267 273 281 287 292 296 300 305 310 314 318 321 324 326
203 206 208 210 213 215 217 218 219 221 225 228 231 234 236 238 238 239 240 242 246 248 250 250 252 253 257 261 264 268 273 278 283 288 292 296 301 307 312 316 320 323 326
207 209 211 212 213 214 214 215 218 222 225 228 231 235 238 240 242 242 244 246 248 250 252 253 255 256 259 262 265 269 273 277 281 284 288 292 297 304 309 314 319 325 329
209 210 211 210 211 213 216 220 223 226 227 230 231 234 237 240 242 245 246 248 250 253 254 256 258 259 260 263 266 269 273 276 279 283 286 288 294 300 307 312 317 324 329
208 210 210 213 215 219 223 225 227 230 230 232 234 236 239 243 244 246 248 250 253 256 256 257 258 259 261 264 266 269 272 274 277 280 282 285 290 297 303 308 313 319 325
209 211 213 217 221 224 226 229 232 233 233 236 239 241 244 248 250 250 251 254 258 259 260 259 259 260 262 264 267 270 273 273 274 275 278 282 288 294 299 303 307 314 320
215 212 214 220 224 225 227 229 233 235 238 240 243 245 248 251 253 254 254 256 259 261 263 262 261 262 264 266 268 270 272 271 270 272 275 280 285 289 292 296 300 308 313
222 227 222 222 228 229 231 233 236 240 243 245 247 249 250 252 253 255 255 257 261 263 263 262 263 263 264 266 267 268 268 269 269 272 275 279 282 283 286 290 295 301 306
224 224 224 227 229 233 236 240 244 248 251 252 253 254 253 254 254 254 255 258 260 261 262 262 261 261 262 265 266 266 266 267 268 271 275 277 277 279 281 286 292 294 298
230 231 232 235 236 236 239 241 240 247 252 254 255 255 254 253 253 254 255 256 257 259 260 260 260 259 261 264 265 266 265 266 268 271 273 274 275 276 277 282 287 289 291
234 236 237 237 237 238 240 241 246 252 255 258 259 260 258 257 257 256 255 255 255 256 258 260 259 259 260 261 262 264 266 268 269 270 271 272 273 272 274 279 282 283 286
238 239 239 240 241 242 244 246 250 255 259 260 261 262 261 259 258 258 256 254 255 256 257 259 259 259 259 261 263 265 266 268 269 270 271 271 271 270 272 275 277 280 281
242 242 243 244 245 246 247 249 252 256 259 261 259 260 261 261 259 259 257 256 257 258 258 259 259 260 262 263 264 266 267 269 269 269 269 268 269 270 271 271 273 276 278
246 246 246 247 247 247 249 249 253 256 258 260 260 260 261 261 261 260 258 256 257 258 260 261 262 261 263 265 267 268 269 269 268 268 267 267 268 268 269 270 271 272 274
248 249 249 248 249 249 250 251 253 256 258 260 261 261 261 261 259 258 259 259 258 258 260 262 263 264 265 266 267 268 269 268 267 268 267 267 267 267 267 269 270 270 270
249 249 250 250 249 249 250 251 253 255 258 260 261 262 261 261 258 257 258 260 260 260 261 262 264 265 266 267 268 269 269 267 267 266 266 266 266 266 266 267 267 269 269